Date_and_time,latitude,longitude,wind_speed,RelWindDirFrom,WindDirFrom,air_pressure,air_temperature,relative_humidity,Temp,platform_speed_wrt_ground,air_pressure_at_mean_sea_level,platform_orientation
2019-12-27 23:40,50.6304683333333,-96.98078,14.0,18.0,193,982.70,-4.0,70,0.78,0.0,1010.72,270.0
2019-12-27 23:50,50.6304666666667,-96.9807766666667,16.0,20.3,192,982.55,-4.1,70,0.78,0.0,1010.58,270.0
2019-12-28 00:00,50.6304633333333,-96.98078,16.3,21.2,192,982.54,-4.3,71,0.78,0.0,1010.60,323.4
2019-12-28 00:10,50.6304633333333,-96.98078,15.9,21.1,192,982.52,-4.4,73,0.78,0.0,1010.60,323.4
2019-12-28 00:20,50.6304616666667,-96.980775,15.5,21.4,193,982.50,-4.7,74,0.78,0.0,1010.63,323.4
2019-12-28 00:30,50.63046,-96.980775,14.9,20.2,193,982.50,-4.9,75,0.78,0.0,1010.64,323.4
2019-12-28 00:40,50.63046,-96.9807733333333,14.9,20.0,196,982.45,-5.0,76,0.78,0.0,1010.60,323.4
2019-12-28 00:50,50.63046,-96.980775,15.2,20.5,196,982.48,-5.0,77,0.78,0.0,1010.64,323.4
2019-12-28 01:00,50.6304583333333,-96.9807733333333,15.0,19.9,198,982.43,-5.1,78,0.78,0.0,1010.60,38.0
2019-12-28 01:10,50.6304583333333,-96.9807733333333,14.9,19.6,199,982.44,-5.2,78,0.78,0.0,1010.62,38.0
2019-12-28 01:20,50.6304583333333,-96.9807716666667,14.7,20.8,202,982.54,-5.2,78,0.78,0.0,1010.73,38.0
2019-12-28 01:30,50.6304583333333,-96.98077,14.2,19.0,203,982.59,-5.3,78,0.78,0.0,1010.78,38.0
2019-12-28 01:40,50.6304583333333,-96.98077,14.9,19.8,202,982.60,-5.3,78,0.78,0.0,1010.81,38.0
2019-12-28 01:50,50.63046,-96.9807916666667,13.8,18.2,203,982.67,-5.4,78,0.77,0.0,1010.89,38.0
2019-12-28 02:00,50.63045,-96.98077,12.2,16.0,204,982.76,-5.5,78,0.76,0.0,1011.00,90.0
2019-12-28 02:10,50.63045,-96.9807733333333,13.1,16.1,202,982.71,-5.7,79,0.76,0.0,1010.97,90.0
2019-12-28 02:20,50.63045,-96.98077,12.6,16.0,200,982.70,-5.8,79,0.76,0.0,1010.98,90.0
2019-12-28 02:30,50.6304466666667,-96.9807683333333,10.2,14.1,196,982.79,-6.1,81,0.76,0.0,1011.09,90.0
2019-12-28 02:40,50.6304516666667,-96.98076,9.7,13.5,198,982.87,-6.5,82,0.76,0.0,1011.20,90.0
2019-12-28 02:50,50.6304433333333,-96.9807516666667,10.1,13.0,197,982.95,-6.9,83,0.75,0.0,1011.30,90.0
2019-12-28 03:00,50.6304366666667,-96.980765,9.9,12.9,193,983.02,-7.2,84,0.76,0.0,1011.40,171.6
2019-12-28 03:10,50.6304416666667,-96.9807683333333,9.8,13.4,194,983.09,-7.3,85,0.76,0.0,1011.48,171.6
2019-12-28 03:20,50.63044,-96.9807683333333,10.2,12.8,194,983.14,-7.4,85,0.76,0.0,1011.54,171.6
2019-12-28 03:30,50.6304416666667,-96.9807783333333,9.6,12.8,201,983.18,-7.5,85,0.76,0.0,1011.58,171.6
2019-12-28 03:40,50.6304416666667,-96.9807683333333,9.4,13.1,202,983.11,-7.6,85,0.76,0.0,1011.52,171.6
2019-12-28 03:50,50.6304483333333,-96.9807783333333,8.7,10.6,202,983.12,-7.7,85,0.76,0.0,1011.55,171.6
2019-12-28 04:00,50.630455,-96.9807733333333,8.1,9.8,196,983.33,-7.9,86,0.76,0.0,1011.78,360.0
2019-12-28 04:10,50.6304533333333,-96.9807683333333,8.2,9.6,194,983.38,-8.1,86,0.76,0.0,1011.85,360.0
2019-12-28 04:20,50.6304533333333,-96.98077,7.3,10.2,195,983.59,-8.3,86,0.76,0.0,1012.10,360.0
2019-12-28 04:30,50.6304533333333,-96.98077,6.8,8.3,193,983.77,-8.5,87,0.76,0.0,1012.31,360.0
2019-12-28 04:40,50.630455,-96.98077,6.8,8.2,190,983.91,-8.7,87,0.76,0.0,1012.49,360.0
2019-12-28 04:50,50.630455,-96.9807683333333,5.1,7.2,191,984.15,-8.8,87,0.76,0.0,1012.76,360.0
2019-12-28 05:00,50.630455,-96.9807683333333,4.8,5.7,184,984.34,-8.9,87,0.77,0.0,1012.96,90.0
2019-12-28 05:10,50.630455,-96.9807683333333,5.3,6.4,177,984.54,-9.2,88,0.77,0.0,1013.19,90.0
2019-12-28 05:20,50.6304416666667,-96.9807533333333,5.3,6.2,180,984.67,-9.3,88,0.76,0.0,1013.35,90.0
2019-12-28 05:30,50.630445,-96.9807483333333,4.5,5.2,177,984.92,-9.5,88,0.76,0.0,1013.60,90.0
2019-12-28 05:40,50.630445,-96.9807483333333,4.9,5.5,177,984.99,-9.5,88,0.76,0.0,1013.68,90.0
2019-12-28 05:50,50.630445,-96.9807516666667,4.6,5.6,176,985.00,-9.5,88,0.76,0.0,1013.71,90.0
2019-12-28 06:00,50.6304483333333,-96.9807566666667,4.7,5.8,166,985.07,-9.6,88,0.76,0.0,1013.79,14.5
2019-12-28 06:10,50.6304583333333,-96.980755,5.0,6.1,169,985.22,-9.8,89,0.76,0.0,1013.97,14.5
2019-12-28 06:20,50.63046,-96.9807566666667,6.6,7.6,174,985.32,-9.9,90,0.76,0.0,1014.10,14.5
2019-12-28 06:30,50.6304616666667,-96.9807583333333,5.6,7.2,180,985.35,-10.1,90,0.76,0.0,1014.15,14.5
2019-12-28 06:40,50.63046,-96.9807616666667,5.0,5.8,182,985.40,-10.3,91,0.76,0.0,1014.22,14.5
2019-12-28 06:50,50.63046,-96.9807616666667,5.8,6.9,181,985.49,-10.4,91,0.76,0.0,1014.32,14.5
2019-12-28 07:00,50.6304616666667,-96.9807633333333,6.1,7.0,185,985.64,-10.4,91,0.76,0.0,1014.49,360.0
2019-12-28 07:10,50.630465,-96.980755,6.1,7.5,188,985.64,-10.3,91,0.76,0.0,1014.49,360.0
2019-12-28 07:20,50.6304683333333,-96.98076,5.4,6.2,187,985.68,-10.3,91,0.75,0.0,1014.54,360.0
2019-12-28 07:30,50.6304666666667,-96.98076,5.7,7.2,189,985.90,-10.4,91,0.75,0.0,1014.78,360.0
2019-12-28 07:40,50.6304633333333,-96.9807633333333,6.1,7.5,193,986.25,-10.5,92,0.75,0.0,1015.14,360.0
2019-12-28 07:50,50.6304566666667,-96.9807566666667,4.5,6.4,196,986.29,-10.4,91,0.75,0.0,1015.18,360.0
2019-12-28 08:00,50.630475,-96.980775,4.3,5.6,191,986.38,-10.6,92,0.75,0.0,1015.29,360.0
2019-12-28 08:10,50.630465,-96.9807716666667,6.8,9.0,183,986.61,-10.9,92,0.75,0.0,1015.56,360.0
2019-12-28 08:20,50.6304633333333,-96.98077,7.1,8.8,188,986.81,-11.1,92,0.75,0.0,1015.79,360.0
2019-12-28 08:30,50.6304633333333,-96.9807716666667,5.7,7.6,196,986.90,-11.2,92,0.75,0.0,1015.89,360.0
2019-12-28 08:40,50.63045,-96.9807666666667,7.1,8.6,197,987.02,-11.0,92,0.75,0.0,1016.01,360.0
2019-12-28 08:50,50.630455,-96.9807666666667,5.4,7.1,207,987.12,-10.8,91,0.75,0.0,1016.10,360.0
2019-12-28 09:00,50.6304566666667,-96.9807666666667,5.7,7.2,217,987.07,-10.5,91,0.75,0.0,1016.03,311.7
2019-12-28 09:10,50.6304566666667,-96.980765,6.8,8.7,214,987.11,-10.5,90,0.75,0.0,1016.07,311.7
2019-12-28 09:20,50.6304716666667,-96.98072,5.2,7.1,217,987.07,-10.8,90,0.75,0.0,1016.05,311.7
2019-12-28 09:30,50.6304583333333,-96.9807483333333,4.6,5.4,224,987.17,-10.9,91,0.75,0.0,1016.16,311.7
2019-12-28 09:40,50.6304683333333,-96.9807916666667,4.5,5.9,217,987.33,-11.1,91,0.75,0.0,1016.34,311.7
2019-12-28 09:50,50.6304616666667,-96.9807583333333,4.2,5.3,219,987.40,-11.1,92,0.75,0.0,1016.42,311.7
2019-12-28 10:00,50.63046,-96.98076,3.4,4.9,225,987.34,-11.2,92,0.75,0.0,1016.38,167.4
2019-12-28 10:10,50.63046,-96.9807633333333,2.6,3.8,229,987.33,-11.2,93,0.75,0.0,1016.37,167.4
2019-12-28 10:20,50.6304616666667,-96.9807733333333,2.3,3.4,184,987.50,-11.4,93,0.75,0.0,1016.56,167.4
2019-12-28 10:30,50.63046,-96.9807666666667,3.2,4.0,196,987.43,-11.8,92,0.75,0.0,1016.50,167.4
2019-12-28 10:40,50.630455,-96.9807683333333,1.7,2.7,216,987.29,-12.0,93,0.75,0.0,1016.37,167.4
2019-12-28 10:50,50.6304583333333,-96.9807633333333,0.6,2.1,267,987.22,-11.8,94,0.75,0.0,1016.27,167.4
2019-12-28 11:00,50.6304583333333,-96.9807616666667,2.4,4.0,174,987.42,-12.1,93,0.75,0.0,1016.49,147.5
2019-12-28 11:10,50.6304483333333,-96.9807783333333,3.5,4.4,183,987.46,-12.7,94,0.75,0.0,1016.58,147.5
2019-12-28 11:20,50.6304566666667,-96.9807733333333,3.0,4.3,169,987.47,-13.0,94,0.74,0.0,1016.61,147.5
2019-12-28 11:30,50.6304583333333,-96.98077,3.2,4.2,177,987.57,-13.1,94,0.74,0.0,1016.74,147.5
2019-12-28 11:40,50.6304583333333,-96.9807733333333,5.2,7.2,180,987.83,-13.2,94,0.74,0.0,1017.01,147.5
2019-12-28 11:50,50.6304666666667,-96.9807683333333,7.2,8.7,181,988.02,-13.2,94,0.74,0.0,1017.21,147.5
2019-12-28 12:00,50.63047,-96.9807666666667,5.5,7.5,185,988.09,-13.2,94,0.73,0.0,1017.28,360.0
2019-12-28 12:10,50.630465,-96.9807633333333,5.2,6.3,180,988.19,-13.2,94,0.73,0.0,1017.39,360.0
2019-12-28 12:20,50.630465,-96.980765,6.1,6.7,178,988.27,-13.2,94,0.73,0.0,1017.50,360.0
2019-12-28 12:30,50.6304633333333,-96.9807666666667,5.6,6.6,185,988.47,-13.3,94,0.72,0.0,1017.73,360.0
2019-12-28 12:40,50.63046,-96.9807666666667,3.1,5.8,206,988.58,-13.5,93,0.72,0.0,1017.84,360.0
2019-12-28 12:50,50.6304616666667,-96.980775,1.4,2.1,214,988.57,-13.4,93,0.72,0.0,1017.84,360.0
2019-12-28 13:00,50.6304583333333,-96.98077,2.5,3.8,208,988.63,-13.4,93,0.72,0.0,1017.94,270.0
2019-12-28 13:10,50.6304583333333,-96.9807716666667,3.7,4.5,179,988.82,-13.7,92,0.72,0.0,1018.16,270.0
2019-12-28 13:20,50.6304266666667,-96.9807716666667,3.3,4.2,207,988.87,-13.9,92,0.72,0.0,1018.23,270.0
2019-12-28 13:30,50.6304583333333,-96.9807683333333,2.7,4.0,226,988.95,-13.7,92,0.72,0.0,1018.31,270.0
2019-12-28 13:40,50.63046,-96.9807666666667,2.2,3.1,206,989.07,-13.6,92,0.71,0.0,1018.43,270.0
2019-12-28 13:50,50.63047,-96.98078,1.3,2.3,233,989.07,-13.6,92,0.71,0.0,1018.42,270.0
2019-12-28 14:00,50.6304583333333,-96.98077,1.7,2.7,194,989.17,-13.7,92,0.71,0.0,1018.54,270.0
2019-12-28 14:10,50.6304583333333,-96.98077,1.4,2.4,191,989.22,-14.0,91,0.71,0.0,1018.61,270.0
2019-12-28 14:20,50.6304566666667,-96.9807683333333,3.7,4.6,174,989.38,-14.3,91,0.71,0.0,1018.79,270.0
2019-12-28 14:30,50.6304583333333,-96.9807666666667,2.7,3.7,189,989.49,-14.5,91,0.71,0.0,1018.93,270.0
2019-12-28 14:40,50.6304566666667,-96.980765,1.6,3.0,199,989.56,-14.6,91,0.71,0.0,1019.00,270.0
2019-12-28 14:50,50.6304516666667,-96.9807666666667,1.8,2.3,202,989.73,-14.5,90,0.71,0.0,1019.17,270.0
2019-12-28 15:00,50.6305666666667,-96.9806566666667,2.8,3.9,221,990.00,-14.2,89,0.71,0.0,1019.45,37.7
2019-12-28 15:10,50.6304566666667,-96.9807783333333,2.9,4.4,229,990.21,-13.8,88,0.71,0.0,1019.65,37.7
2019-12-28 15:20,50.630455,-96.9807766666667,1.3,2.8,259,990.30,-13.2,87,0.71,0.0,1019.69,37.7
2019-12-28 15:30,50.6304566666667,-96.9807666666667,1.5,2.5,240,990.40,-12.7,85,0.71,0.0,1019.76,37.7
2019-12-28 15:40,50.6304616666667,-96.98077,1.5,2.6,262,990.46,-12.7,84,0.71,0.0,1019.83,37.7
2019-12-28 15:50,50.6304466666667,-96.980755,0.9,2.0,264,990.55,-12.3,83,0.71,0.0,1019.90,37.7
2019-12-28 16:00,50.6304516666667,-96.9807583333333,2.4,3.6,231,990.58,-12.2,83,0.71,0.0,1019.95,131.7
2019-12-28 16:10,50.6304566666667,-96.9807566666667,2.2,2.8,212,990.63,-12.3,84,0.71,0.0,1020.02,131.7
2019-12-28 16:20,50.630455,-96.98076,1.9,2.9,201,990.67,-12.0,85,0.71,0.0,1020.06,131.7
2019-12-28 16:30,50.63045,-96.9807583333333,1.6,2.7,208,990.89,-11.4,84,0.70,0.0,1020.26,131.7
2019-12-28 16:40,50.6304483333333,-96.9807566666667,1.7,3.0,182,991.01,-11.0,84,0.70,0.0,1020.35,131.7
2019-12-28 16:50,50.63045,-96.9807616666667,2.7,4.2,156,991.22,-11.2,85,0.70,0.0,1020.56,131.7
2019-12-28 17:00,50.63045,-96.9807666666667,3.0,4.1,148,991.31,-11.5,85,0.71,0.0,1020.64,142.0
2019-12-28 17:10,50.63045,-96.9807666666667,2.8,3.5,130,991.13,-10.7,83,0.71,0.0,1020.38,142.0
2019-12-28 17:20,50.6304416666667,-96.980775,1.6,2.9,132,991.04,-10.2,80,0.71,0.0,1020.24,142.0
2019-12-28 17:30,50.6304466666667,-96.9807666666667,1.1,2.1,118,991.06,-9.0,76,0.71,0.0,1020.18,142.0
2019-12-28 17:40,50.6304483333333,-96.980765,1.4,2.2,104,990.94,-7.7,71,0.71,0.0,1019.97,142.0
2019-12-28 17:50,50.63045,-96.9807633333333,1.6,2.3,96,990.86,-6.7,67,0.71,0.0,1019.82,142.0
2019-12-28 18:00,50.6304516666667,-96.9807616666667,2.0,2.8,68,990.82,-7.3,70,0.71,0.0,1019.81,210.3
2019-12-28 18:10,50.6304533333333,-96.9807616666667,2.1,2.6,78,990.82,-8.0,73,0.71,0.0,1019.84,210.3
2019-12-28 18:20,50.6304533333333,-96.9807633333333,2.2,3.3,89,990.82,-7.3,69,0.71,0.0,1019.77,210.3
2019-12-28 18:30,50.630455,-96.980765,1.8,2.6,87,990.89,-6.9,68,0.71,0.0,1019.80,210.3
2019-12-28 18:40,50.630455,-96.980765,2.0,2.7,86,990.84,-6.6,67,0.71,0.0,1019.74,210.3
2019-12-28 18:50,50.630455,-96.9807666666667,2.2,2.7,73,990.88,-7.2,70,0.71,0.0,1019.84,210.3
2019-12-28 19:00,50.63045,-96.9807716666667,2.9,3.8,45,990.87,-8.6,77,0.71,0.0,1019.86,270.0
2019-12-28 19:10,50.6304533333333,-96.9807716666667,3.3,3.9,47,990.86,-9.1,79,0.71,0.0,1019.85,270.0
2019-12-28 19:20,50.630455,-96.98076,3.6,4.7,36,990.77,-9.2,80,0.72,0.0,1019.69,270.0
2019-12-28 19:30,50.6304583333333,-96.980765,3.9,4.6,42,990.69,-9.3,81,0.72,0.0,1019.55,270.0
2019-12-28 19:40,50.630455,-96.9807633333333,3.6,4.7,61,990.65,-9.1,80,0.72,0.0,1019.43,270.0
2019-12-28 19:50,50.6304533333333,-96.980765,3.6,4.6,67,990.69,-8.7,79,0.72,0.0,1019.49,270.0
2019-12-28 20:00,50.6304533333333,-96.9807683333333,2.8,3.6,56,990.66,-8.9,79,0.72,0.0,1019.50,90.0
2019-12-28 20:10,50.6304533333333,-96.9807716666667,3.3,4.1,22,990.63,-9.7,83,0.72,0.0,1019.48,90.0
2019-12-28 20:20,50.6304566666667,-96.9807916666667,2.5,4.1,43,990.59,-9.7,84,0.72,0.0,1019.42,90.0
2019-12-28 20:30,50.6304516666667,-96.980775,2.3,3.2,78,990.77,-9.0,81,0.72,0.0,1019.55,90.0
2019-12-28 20:40,50.6304516666667,-96.980775,2.1,2.9,90,990.93,-8.7,79,0.73,0.0,1019.73,90.0
2019-12-28 20:50,50.6304516666667,-96.9807766666667,1.6,2.3,50,991.02,-9.1,82,0.73,0.0,1019.92,90.0
2019-12-28 21:00,50.63045,-96.9807766666667,1.5,2.1,67,991.18,-9.1,82,0.73,0.0,1020.12,270.0
2019-12-28 21:10,50.6304516666667,-96.9807766666667,1.7,2.3,71,991.20,-8.5,79,0.73,0.0,1020.11,270.0
2019-12-28 21:20,50.6304583333333,-96.9807333333333,1.7,2.5,73,991.32,-8.1,77,0.74,0.0,1020.22,270.0
2019-12-28 21:30,50.6304516666667,-96.980765,3.3,4.0,10,991.51,-9.6,84,0.74,0.0,1020.48,270.0
2019-12-28 21:40,50.6304583333333,-96.98077,3.3,4.1,14,991.70,-10.0,87,0.75,0.0,1020.67,270.0
2019-12-28 21:50,50.6304483333333,-96.9807716666667,4.0,5.0,11,991.76,-10.1,88,0.75,0.0,1020.76,270.0
2019-12-28 22:00,50.6304433333333,-96.9807683333333,4.2,5.3,5,991.91,-10.2,88,0.75,0.0,1020.96,360.0
2019-12-28 22:10,50.6304283333333,-96.9807333333333,3.5,4.3,1,992.09,-10.5,89,0.75,0.0,1021.16,360.0
2019-12-28 22:20,50.6304366666667,-96.9807533333333,3.6,4.4,7,992.16,-10.6,90,0.76,0.0,1021.20,360.0
2019-12-28 22:30,50.630435,-96.980755,3.8,4.7,11,992.19,-10.6,91,0.76,0.0,1021.21,360.0
2019-12-28 22:40,50.63045,-96.9807583333333,4.4,5.8,10,992.16,-10.5,92,0.77,0.0,1021.20,360.0
2019-12-28 22:50,50.6304483333333,-96.9807616666667,5.3,6.0,359,992.12,-10.6,92,0.77,0.0,1021.17,360.0
2019-12-28 23:00,50.630445,-96.9807583333333,4.2,5.4,9,992.17,-10.6,92,0.77,0.0,1021.18,165.5
2019-12-28 23:10,50.6304483333333,-96.9807583333333,4.8,6.0,8,992.21,-10.5,92,0.77,0.0,1021.20,165.5
2019-12-28 23:20,50.6304516666667,-96.9807566666667,4.9,5.8,1,992.23,-10.5,92,0.77,0.0,1021.31,165.5
2019-12-28 23:30,50.6304533333333,-96.9807583333333,4.8,5.9,1,992.33,-10.5,92,0.77,0.0,1021.42,165.5
2019-12-28 23:40,50.63046,-96.980705,4.8,5.5,360,992.32,-10.4,92,0.76,0.0,1021.41,165.5
